Torna al catalogo

FENGYUN 1C DEB

AttivoSSO
NORAD 31321·DEBRIS·🇨🇳 China

Lanciato May 10, 1999 da Taiyuan Satellite Launch Center

Loading…

Prossimi Passaggi (prossime 24 ore)

TLE

In scadenzaSource: Space-Track

Epoca: Sep 10, 2026, 10:29 UTC

1 31321U 99025BPZ 26253.43739877  .00000116  00000-0  83001-4 0  9995
2 31321  98.7115 330.6760 0030774 123.9784 236.4320 14.13955758612235

Traccia FENGYUN 1C DEB in tempo reale con AllMySat

Download on the App Store